www.pogodaiklimat.ru

Погода и климат >> Архив погоды >> Индия >> Керала >> Каннаноре


ПОГОДА в Каннаноре

  • Прогноз погоды в Каннаноре
  • Монитор погоды в Каннаноре

АРХИВ ПОГОДЫ в Каннаноре

Время (UTC), дата Ветер
(напр.,м/с)
 
Видим.   Явления Облачность Т
(С)
Тd
(С)
f
(%)
Тe
(С)
Тes
(С)
Комфортность P
(гПа)
Po
(гПа)
Тmin
(С)
Tmax
(С)
R
(мм)
R24
(мм)
S
(см)
06 19.03 ЮЗ 3 10 км 3/1 600 м
[Cu Sc Ci fib]
+34.6 +24.7 57 +48 +62 опасность
перегрева
1011.2 1009.2
09 19.03 ЮЗ 5 4000 м 1/0
[Ci fib]
+35.0 +25.2 57 +49 +57 опасность
перегрева
1008.5 1006.5
12 19.03 СЗ 3 4000 м мгла 1/0
[Ci fib]
+31.8 +25.0 67 +45 +46 опасность
перегрева
1007.2 1005.2 +35.9
00 20.03 З 1 2000 м дымка 4/3 600 м
[Sc Ci fib]
+26.8 +24.8 89 +38 +38 очень
душно
1009.1 1007.0
03 20.03 С 1 4000 м мгла 4/1 600 м
[Sc Ci sp]
+28.4 +24.7 80 +40 +46 очень
душно
1011.5 1009.4 +26.4 +35.9
06 20.03 ЮЗ 2 4000 м 4/3 600 м
[Cu Sc Ci fib]
+33.2 +24.1 59 +45 +59 опасность
перегрева
1012.1 1010.1
09 20.03 ЮЗ 4 10 км 1/0
[Ci fib]
+35.2 +24.8 55 +48 +59 опасность
перегрева
1009.2 1007.2
12 20.03 З 3 4000 м 3/1
[Cu med, cong Ci fib]
+32.4 +24.4 63 +45 +46 опасность
перегрева
1007.5 1005.5 +35.4
00 21.03 В 2 2000 м дымка 4/3 600 м
[Sc Ci fib]
+27.0 +24.4 86 +38 +38 очень
душно
1009.6 1007.5
03 21.03 СВ 2 4000 м 3/0
[Ci fib]
+28.6 +24.0 76 +40 +45 очень
душно
1012.7 1010.6 +26.1 +35.4
06 21.03 ЮЗ 2 4000 м 1/0
[Ci fib]
+34.4 +23.5 53 +45 +65 опасность
перегрева
1013.3 1011.3
09 21.03 ЮЗ 5 10 км 3/0
[Ci fib]
+35.4 +24.7 54 +48 +56 опасность
перегрева
1009.8 1007.8
12 21.03 СЗ 3 4000 м 4/3 600 м
[Cu Sc Ci fib]
+31.8 +24.7 66 +45 +46 опасность
перегрева
1007.1 1005.1 +36.0
00 22.03 СВ 1 2000 м дымка 1/0
[Ci fib]
+26.4 +22 +22 комфорт 1011.5 1009.4
03 22.03 СВ 1 4000 м мгла 1/0
[Ci fib]
+28.2 +22.9 73 +38 +44 очень
душно
1013.6 1011.5 +25.6 +36.0
06 22.03 ЮЗ 3 4000 м 1/0
[Ci fib]
+34.2 +22.3 50 +43 +61 опасность
перегрева
1013.4 1011.4
09 22.03 ЮЗ 4 4000 м 1/0
[Ci fib]
+35.0 +23.6 52 +46 +57 опасность
перегрева
1010.1 1008.1
12 22.03 З 3 4000 м 1/0
[Ci fib]
+32.0 +23.3 60 +43 +44 опасность
перегрева
1009.4 1007.4 +35.4
00 23.03 СВ 1 2000 м дымка 5/1 600 м
[Sc Ac trans Ci fib]
+26.4 +24.4 89 +37 +37 очень
душно
1010.7 1008.6
03 23.03 В 1 4000 м 4/0 2000 м
[Ac trans Ci fib]
+28.4 +24.7 80 +40 +46 очень
душно
1013.6 1011.5 +25.7 +35.4
06 23.03 ЮЗ 3 4000 м 4/3 600 м
[Cu Sc Ci fib]
+34.4 +24.8 57 +47 +60 опасность
перегрева
1013.1 1011.1
09 23.03 ЮЗ 4 10 км 3/1 600 м
[Cu Sc Ci fib]
+35.4 +25.3 56 +49 +59 опасность
перегрева
1010.2 1008.2
12 23.03 З 3 4000 м 3/1 600 м
[Cu Sc Ci fib]
+32.6 +24.7 63 +46 +47 опасность
перегрева
1009.0 1007.0 +36.1
00 24.03 штиль 0 2000 м дымка 4/0 2000 м
[Ac trans Ci fib]
+27.4 +24.8 86 +39 +39 очень
душно
1010.5 1008.4
03 24.03 СВ 1 4000 м 1/0
[Ci fib]
+29.2 +25.2 79 +42 +49 опасность
перегрева
1012.4 1010.3 +26.7 +36.1
06 24.03 ЮЗ 3 10 км 1/0
[Ci fib]
+34.8 +24.6 56 +48 +64 опасность
перегрева
1012.1 1010.1
09 24.03 ЮЗ 4 10 км 1/0
[Ci fib]
+35.8 +25.5 55 +50 +60 опасность
перегрева
1008.3 1006.3
12 24.03 З 3 4000 м 4/0 2000 м
[Ac trans Ci fib]
+32.4 +24.1 62 +45 +46 опасность
перегрева
1007.2 1005.2 +36.4
00 25.03 СВ 1 2000 м дымка 3/1 600 м
[Sc Ci fib]
+27.0 +24.7 87 +38 +38 очень
душно
1008.9 1006.8
03 25.03 СВ 1 4000 м 1/0
[Ci fib]
+29.0 +24.7 78 +41 +48 опасность
перегрева
1011.1 1009.0 +26.2 +36.4
06 25.03 ЮЗ 3 10 км ясно +35.6 +24.9 54 +49 +67 опасность
перегрева
1010.2 1008.2
09 25.03 ЮЗ 5 10 км ясно +35.2 +24.8 55 +48 +57 опасность
перегрева
1007.3 1005.3
12 25.03 З 3 4000 м 1/0
[Ci fib]
+32.8 +25.8 67 +48 +50 опасность
перегрева
1007.3 1005.3 +36.7
00 26.03 штиль 0 2000 м дымка 3/0
[Ci fib]
+27.4 +25.4 89 +40 +40 очень
душно
1010.1 1008.0
03 26.03 СВ 2 4000 м 1/0
[Ci fib]
+29.4 +25.1 78 +43 +49 опасность
перегрева
1012.3 1010.2 +26.7 +36.7

 

Местоположение метеостанции Каннаноре (Керала, Индия): широта 11.83 долгота 75.33 высота над уровнем моря 18 м.

В архиве по умолчанию представлена погода в Каннаноре за последнюю неделю. Архивные данные за месяц целиком и за предыдущие месяцы, начиная с января 2011 года, Вы можете получить, выбрав интересующий диапазон дат из раскрывающегося списка и нажав кнопку "Ввод!".


*Определитесь, кто Вы:
робот инопланетянин человек

Внимание! Время в таблицах - всемирное. Для получения местного времени необходимо прибавить поправку, которая равна 5.5 ч.

Смотрите также архив погоды в соседних городах и на ближайших метеорологических станциях:

Погода в Мадикери (Карнатака, Индия) (79 км)
Погода в Кожикоде (Керала, Индия) (81 км)
Погода в Карипере (Керала, Индия) (103 км)
Погода в Мангалор аэропорт (Карнатака, Индия) (131 км)
Погода в Мангалоре (Карнатака, Индия) (136 км)
Погода в Майсуре (Карнатака, Индия) (158 км)
Погода в Удагамандаламе (Тамилнад, Индия) (160 км)
Погода в Чикмагалуре (Карнатака, Индия) (164 км)
Погода в Хассане (Карнатака, Индия) (167 км)
Погода в Кунуре (Тамилнад, Индия) (169 км)

Пояснения к столбцам:

Ветер - указаны скорость ветра в м/с - средняя за 10 мин, порывы в срок и между сроками (в фигурных скобках) и направление, откуда дует ветер: С - северный, СВ - северо-восточный, В - восточный, ЮВ - юго-восточный, Ю - южный, ЮЗ - юго-западный, З - западный, СЗ - северо-западный.
Видимость - горизонтальная дальность видимости в метрах или километрах. При видимости от 1 до 10 км при отсутствии осадков обычно наблюдается дымка, при ухудшении видимости до 1 км и менее - туман. В сухую погоду видимость может ухудшаться дымом, пылью или мглою.
Явления - указаны атмосферные явления, наблюдавшиеся в срок или в последний час перед сроком; фигурными скобками обозначены явления, наблюдавшиеся между сроками (за 1-3 часа до срока); квадратными скобками обозначены град или гололедные отложения с указанием их диаметра в мм.
Облачность - указаны через наклонную черту общая и нижняя облачность в баллах и высота нижней границы облаков в метрах; квадратными скобками обозначены формы облаков: Ci - перистые, Cs - перисто-слоистые, Cc - перисто-кучевые, Ac - высококучевые, As - высокослоистые, Sc - слоисто-кучевые, Ns - слоисто-дождевые, Cu - кучевые, Cb - кучево-дождевые. Подробнее классификацию облаков см. в Атласе облаков (PDF).
T - Температура воздуха - температура, измеренная на высоте 2 м над землей.
Td - Температура точки росы - температура, при понижении до которой содержащийся в воздухе водяной пар достигнет насыщения.
f - Относительная влажность воздуха - влажноcть воздуха, измеренная на высоте 2 м над землей.
Te - Эффективная температура - температура, которую ощущает одетый по сезону человек в тени. Характеристика душности погоды. При расчете учитывается влияние влажности воздуха и скорости ветра на теплоощущения человека.
Tes - Эффективная температура на солнце - температура, которую ощущает человек, с поправкой на солнечный нагрев. Характеристика знойности погоды. Зависит от высоты солнца над горизонтом, облачности и скорости ветра. Ночью, в пасмурную погоду, а также при ветре 12 м/с и более поправка равна нулю.
P - Атмосферное давление - приведенное к уровню моря атмосферное давление.
Po - Атмосферное давление - измеренное на уровне метеостанции атмосферное давление.
Tmin - Минимальная температура - минимум температуры воздуха на высоте 2 м над землей.
Tmax - Максимальная температура - максимум температуры воздуха на высоте 2 м над землей.
R - Количество осадков - Количество выпавших осадков за период времени, мм. При наведении курсора мыши на число - период времени, за который выпало указанное количество осадков.
R24 - Количество осадков - Количество выпавших осадков за 24 часа, мм.
S - Снежный покров - Высота снежного покрова, см. При наведении курсора мыши на число - состояние снежного покрова и степень покрытия местности в баллах.